Tracking 35036 objects as of 15-Aug-2026
HD Live streaming from Space Station
objects crossing your sky now

COSMOS 57 DEB


COSMOS 57 DEB is no longer on orbit


NORAD ID: 1141
Int'l Code: 1965-012AV
Launch date: February 22, 1965
Source: Commonwealth of Independent States (former USSR) (CIS)
Launch site: TYURATAM MISSILE AND SPACE COMPLEX (TTMTR)
Decay date: 1965-03-10

Note: This is SATELLITE DEBRIS
Your satellite tracking list
Your tracking list is empty




NASA's NSSDC Master Catalog

Two Line Element Set (TLE):
1 01141U 65012 AV 65068.00670692  .01033267 +21284-2 +00000-0 0  9997
2 01141 064.6837 247.7247 0202598 075.0514 287.1909 15.86221032002316
Source of the keplerian elements: AFSPC